Change the Weather History Date:

Sunday, January 22, 2012

  Actual Average Record
Temperature  
Mean Temperature 58 °F 59 °F  
Max Temperature 70 °F 70 °F 82 °F (2014)
Min Temperature 46 °F 48 °F 25 °F (1937)
Degree Days  
Heating Degree Days 7 6  
Month to date heating degree days 113 152  
Since 1 July heating degree days 478 456  
Cooling Degree Days 0 0  
Month to date cooling degree days 3 0  
Year to date cooling degree days 3 0  
Growing Degree Days 8 (Base 50)    
Moisture  
Dew Point 25 °F    
Average Humidity 32    
Maximum Humidity 49    
Minimum Humidity 14    
Precipitation  
Precipitation 0.00 in 0.01 in 0.50 in (1915)
Month to date precipitation T 0.28  
Year to date precipitation T 0.28  
Sea Level Pressure  
Sea Level Pressure 30.08 in    
Wind  
Wind Speed 4 mph (NE)    
Max Wind Speed 12 mph    
Max Gust Speed 14 mph    
Visibility 10 miles    
Events      
T = Trace of Precipitation, MM = Missing Value Source: NWS Daily Summary

Daily Weather History Graph

Daily Weather History Graph

Search for Another Location

Airport or City:

Trip Planner

Search our weather history database for the weather conditions in past years. The results will help you decide how hot, cold, wet, or windy it might be!

Date:

Astronomy

Jan. 22, 2012 Rise Set
Actual Time 7:38 AM MST 6:01 PM MST
Civil Twilight 7:12 AM MST 6:27 PM MST
Nautical Twilight 6:42 AM MST 6:57 PM MST
Astronomical Twilight 6:13 AM MST 7:27 PM MST
Moon 6:58 AM MST (1/22) 5:46 PM MST (1/22)
Length of Visible Light 11h 15m
Length of Day
10h 22m
Waning Crescent, 0% of the Moon is Illuminated
Jan 22
Waning Crescent
Jan 23
New
Jan 30
First Quarter
Feb 7
Full
Feb 14
Last Quarter

Hourly Weather History & Observations

Time (MST) Temp. Dew Point Humidity Pressure Visibility Wind Dir Wind Speed Gust Speed Precip Events Conditions
12:55 AM 55.9 °F 24.1 °F 29% 30.01 in 10.0 mi North 3.5 mph - N/A   Clear
1:55 AM 54.0 °F 26.1 °F 34% 30.04 in 10.0 mi Calm Calm - N/A   Clear
2:55 AM 48.0 °F 28.0 °F 46% 30.06 in 10.0 mi SE 4.6 mph - N/A   Clear
3:55 AM 50.0 °F 28.0 °F 43% 30.07 in 10.0 mi East 3.5 mph - N/A   Clear
4:55 AM 46.0 °F 28.0 °F 50% 30.06 in 10.0 mi Calm Calm - N/A   Clear
5:55 AM 46.9 °F 28.0 °F 48% 30.08 in 8.0 mi Calm Calm - N/A   Clear
6:55 AM 48.9 °F 26.1 °F 41% 30.09 in 10.0 mi NNE 8.1 mph - N/A   Clear
7:55 AM 48.9 °F 27.0 °F 43% 30.10 in 10.0 mi NNE 8.1 mph - N/A   Clear
8:55 AM 51.1 °F 27.0 °F 39% 30.11 in 10.0 mi NNE 8.1 mph - N/A   Clear
9:55 AM 55.9 °F 28.0 °F 34% 30.14 in 10.0 mi Calm Calm - N/A   Clear
10:55 AM 61.0 °F 28.0 °F 29% 30.15 in 10.0 mi NE 4.6 mph - N/A   Clear
11:55 AM 64.9 °F 26.1 °F 23% 30.12 in 10.0 mi NE 4.6 mph - N/A   Clear
12:55 PM 68.0 °F 21.0 °F 17% 30.10 in 10.0 mi Calm Calm - N/A   Clear
1:55 PM 69.1 °F 19.0 °F 15% 30.07 in 10.0 mi NNE 8.1 mph - N/A   Partly Cloudy
2:55 PM 69.1 °F 18.0 °F 14% 30.06 in 10.0 mi Variable 3.5 mph - N/A   Clear
3:55 PM 69.1 °F 17.1 °F 14% 30.06 in 10.0 mi NE 6.9 mph - N/A   Clear
4:55 PM 69.1 °F 18.0 °F 14% 30.06 in 10.0 mi ENE 5.8 mph - N/A   Clear
5:55 PM 66.0 °F 21.0 °F 18% 30.07 in 10.0 mi Calm Calm - N/A   Clear
6:55 PM 62.1 °F 23.0 °F 22% 30.08 in 10.0 mi ENE 4.6 mph - N/A   Clear
7:55 PM 60.1 °F 21.9 °F 23% 30.08 in 10.0 mi ENE 3.5 mph - N/A   Clear
8:55 PM 55.0 °F 25.0 °F 31% 30.08 in 10.0 mi Calm Calm - N/A   Clear
9:55 PM 52.0 °F 28.9 °F 41% 30.08 in 10.0 mi Calm Calm - N/A   Clear
10:55 PM 51.1 °F 28.0 °F 41% 30.09 in 10.0 mi Calm Calm - N/A   Clear
11:55 PM 53.1 °F 24.1 °F 32% 30.08 in 10.0 mi NNE 5.8 mph - N/A   Clear